{"data":{"norad_id":50482,"intl_designator":"2021-132P","name":"ONEWEB-0402","alt_names":[],"object_type":"PAYLOAD","status":"ACTIVE","operator":null,"country":"UK","launch_date":"2021-12-27","launch_site_code":"TYMSC","launch_vehicle":null,"mission":null,"orbit_class":"UNKNOWN","rcs_meters":null,"size_class":null,"mass_kg":null,"dimensions":null,"purposes":["comms"],"wikipedia_slug":null,"has_3d_model":false,"image_url":null,"decayed_at":null,"tle_current":{"epoch":"2026-09-19T22:31:41.589120Z","epoch_age_seconds":74341,"freshness":"FRESH","line1":"1 50482U 21132P   26262.93867580 -.00001128  00000+0 -28944-2 0  9994","line2":"2 50482  87.9160 316.6080 0002415  89.3225 270.8184 13.18691782234125","mean_motion":13.18691782,"eccentricity":0.0002415,"inclination_deg":87.916,"raan_deg":316.608,"arg_perigee_deg":89.3225,"mean_anomaly_deg":270.8184,"bstar":-0.0028944,"rev_number":23412,"period_min":109.19913353946,"perigee_km":1187.8933674795,"apogee_km":1191.548642896,"semimajor_km":7567.8580051878,"source":"CELESTRAK","updated_at":"2026-09-20T09:00:44.702012Z"}}}